Погода в Жилине

Россия / Белгородская область     50°37′32″N   37°48′22″E
темп.,
°C
ветер,
м/с
пор.,
м/с
влажн.,
%
обл.,
%
осадки,
мм/ч
давл.,
гПа
погр.,
м
26 июля, пн
пн2600:00+17в22620 0.0 102217
03:00+16всв12643 0.0 102211
06:00+16в226612 0.0 102315
09:00+23в34500 0.0 1023408
12:00+26в45360 0.0 10231920
15:00+27всв34330 0.0 10222321
18:00+27всв23410 0.0 10211022
21:00+20всв22580 0.0 102217
27 июля, вт
вт2700:00+18всв22570 0.0 102217
03:00+17всв22580 0.0 102311
06:00+17в22633 0.0 102313
09:00+24в334611 0.0 1022353
12:00+28вюв33365 0.0 10221660
15:00+29в21335 0.0 10202429
18:00+28всв22390 0.0 1019355
21:00+22в22450 0.0 102011
28 июля, ср
ср2800:00+20ю22519 0.0 102013
03:00+19юз11580 0.0 102011
06:00+19ююв11640 0.0 101911
09:00+25ю35495 0.0 1018469
12:00+29ююз453838 0.0 10171568
15:00+31ююз4631100 0.0 10152704
18:00+27юз3550100 0.0 1014157
21:00+22ююз3871100 0.0 1014175
29 июля, чт
чт2900:00+18з3791100 2.0 1015145
03:00+19ююз398992 3.0 1013247
06:00+18зюз37922 0.3 1012229
09:00+23з33740 0.3 1012527
12:00+27з235380 0.0 10121296
15:00+30з34435 0.0 10111824
18:00+29зсз124754 0.0 1010830
21:00+24юв11535 0.0 101011
30 июля, пт
пт3000:00+22сз01605 0.0 101011
03:00+21юз1266100 0.0 101013
06:00+21юз34735 0.0 100992
09:00+26з35635 0.0 1010587
12:00+29з45535 0.0 10091270
15:00+31зсз464321 0.0 10082394
18:00+29сз45491 0.0 1009933
21:00+23ссз37640 0.0 1010134